This demonstration page uses our WeatherBlox Daily Observations layout. Learn more.

41.86663, -103.66717

Hourly Observations for July 16, 2020

Temp ( °F °C ) Dew Point ( °F °C ) Humidity (%) Winds ( mph kmh ) Pressure ( in mb ) Visibility ( mi km ) Precip ( " mm )
12:53 am 00:53 Clear 63 17.2 59 15 87 87 ENE 8 13 29.91 1013 10 16.0934 0 0
1:53 am 01:53 Clear 63 17.2 59 15 87 87 E 12 19 29.89 1012 10 16.0934 0 0
2:53 am 02:53 Clear 62 16.7 59 15 90 90 ESE 9 15 29.88 1012 10 16.0934 0 0
3:53 am 03:53 Clear 62 16.7 59 15 90 90 ESE 12 19 29.88 1012 10 16.0934 0 0
4:53 am 04:53 Clear 61 16.1 59 15 93 93 ESE 14 22 29.88 1012 10 16.0934 0 0
5:53 am 05:53 Sunny 60 15.6 59 15 96 96 ESE 8 13 29.9 1013 7 11.26538 0 0
6:53 am 06:53 Sunny 62 16.7 60 15.6 93 93 SE 6 9 29.91 1013 8 12.87472 0 0
7:53 am 07:53 Sunny 65 18.3 59 15 81 81 S 3 6 29.93 1013 10 16.0934 0 0
8:53 am 08:53 Sunny 70 21.1 59 15 68 68 VRB 5 7 29.95 1014 10 16.0934 0 0
9:53 am 09:53 Sunny 74 23.3 61 16.1 64 64 W 6 9 29.94 1014 10 16.0934 0 0
10:53 am 10:53 Sunny 78 25.6 61 16.1 56 56 VRB 7 11 29.94 1014 10 16.0934 0 0
11:53 am 11:53 Sunny 84 28.9 61 16.1 46 46 NW 6 9 29.92 1013 10 16.0934 0 0
12:53 pm 12:53 Sunny 87 30.6 61 16.1 42 42 VRB 6 9 29.9 1013 10 16.0934 0 0
1:53 pm 13:53 Sunny 88 31.1 60 15.6 39 39 Calm 29.88 1012 10 16.0934 0 0
2:53 pm 14:53 Sunny 91 32.8 59 15 34 34 Calm 29.86 1011 10 16.0934 0 0
3:53 pm 15:53 Sunny 92 33.3 59 15 33 33 ESE 9 15 29.84 1011 10 16.0934 0 0
4:53 pm 16:53 Sunny 93 33.9 58 14.4 31 31 ESE 9 15 29.83 1010 10 16.0934 0 0
5:53 pm 17:53 Sunny 93 33.9 53 11.7 26 26 ESE 7 11 29.83 1010 10 16.0934 0 0
6:53 pm 18:53 Sunny 92 33.3 46 7.8 21 21 SSE 7 11 29.83 1010 10 16.0934 0 0
7:53 pm 19:53 Sunny 86 30 59 15 40 40 E 7 11 29.82 1010 10 16.0934 0 0
8:53 pm 20:53 Clear 81 27.2 59 15 47 47 E 7 11 29.83 1010 10 16.0934 0 0
9:53 pm 21:53 Clear 81 27.2 52 11.1 37 37 Calm 29.84 1011 10 16.0934 0 0
10:53 pm 22:53 Clear 76 24.4 55 12.8 48 48 undefined N/A 29.83 1010 10 16.0934 0 0
11:53 pm 23:53 Clear 72 22.2 56 13.3 57 57 undefined N/A 29.83 1010 10 16.0934 0 0

Powered by AerisWeather